DW8343 Weather Reports


time (UTC)temp
F
wind
direction
speed
knots
gust
knots
rain 1hr
in
rain 24hr
in
rain mn
in
humidity
%
barometer
mb
20260902141427 86 320 3.5 6.1 0.00 0.00 0.00 58 1018.1
20260902140926 86 31 0.9 3.5 0.00 0.00 0.00 59 1018.2
20260902140421 86 187 0.9 5.2 0.00 0.00 0.00 59 1018.2
20260902135915 86 189 3.5 6.1 0.00 0.00 0.00 59 1018.4
20260902135412 85 36 0.9 5.2 0.00 0.00 0.00 61 1018.2
20260902134910 85 273 2.6 5.2 0.00 0.00 0.00 61 1018.3
20260902134407 84 287 4.3 7.0 0.00 0.00 0.00 62 1018.1
20260902133906 84 262 1.7 3.5 0.00 0.00 0.00 62 1018.3
20260902133401 84 265 0.9 1.7 0.00 0.00 0.00 62 1018.2
20260902132856 83 260 2.6 7.8 0.00 0.00 0.00 63 1018.3
20260902132351 83 145 2.6 3.5 0.00 0.00 0.00 63 1018.2
20260902131847 83 237 0.9 6.1 0.00 0.00 0.00 64 1018.2
20260902131344 82 172 1.7 3.5 0.00 0.00 0.00 65 1018.2
20260902130842 82 274 2.6 6.1 0.00 0.00 0.00 65 1018.2
20260902130338 82 190 2.6 3.5 0.00 0.00 0.00 65 1018.2
20260902125833 82 230 2.6 6.1 0.00 0.00 0.00 65 1018.2
20260902125329 82 342 1.7 2.6 0.00 0.00 0.00 65 1017.9
20260902124825 82 223 0.9 5.2 0.00 0.00 0.00 65 1017.9
20260902124321 82 223 0.9 5.2 0.00 0.00 0.00 65 1017.9
20260902123815 82 242 2.6 5.2 0.00 0.00 0.00 65 1017.8
20260902123312 82 127 0.9 7.0 0.00 0.00 0.00 66 1017.8
20260902122810 82 228 1.7 3.5 0.00 0.00 0.00 66 1017.8
20260902122307 81 211 1.7 3.5 0.00 0.00 0.00 67 1017.7
20260902121806 81 276 0.0 1.7 0.00 0.00 0.00 67 1017.8
20260902121301 81 101 0.9 5.2 0.00 0.00 0.00 67 1017.6
20260902120757 80 62 0.9 2.6 0.00 0.00 0.00 67 1017.6
20260902120253 80 309 0.9 1.7 0.00 0.00 0.00 68 1017.6
20260902115748 80 45 0.0 0.9 0.00 0.00 0.00 67 1017.5
20260902115244 80 46 0.0 1.7 0.00 0.00 0.00 67 1017.4
20260902114740 80 46 0.0 1.7 0.00 0.00 0.00 67 1017.3
20260902114235 80 81 0.0 0.9 0.00 0.00 0.00 66 1017.4
20260902113729 80 182 0.0 0.9 0.00 0.00 0.00 66 1017.3
20260902113225 80 182 0.0 0.9 0.00 0.00 0.00 66 1017.3
20260902112719 80 129 0.0 0.0 0.00 0.00 0.00 66 1017.3
20260902112216 80 129 0.0 1.7 0.00 0.00 0.00 66 1017.2
20260902111711 81 102 0.0 0.0 0.00 0.00 0.00 65 1017.2
20260902111207 81 102 0.0 0.0 0.00 0.00 0.00 65 1017.2
20260902110703 81 102 0.0 0.9 0.00 0.00 0.00 64 1017.1
20260902110159 82 264 0.0 0.0 0.00 0.00 0.00 64 1017.1
20260902105658 81 223 0.0 0.0 0.00 0.00 0.00 64 1017.1
20260902105154 81 298 0.0 0.9 0.00 0.00 0.00 64 1017.0
20260902104649 82 135 0.0 0.9 0.00 0.00 0.00 63 1017.1
20260902104144 82 7 0.0 0.9 0.00 0.00 0.00 63 1017.3
20260902103643 82 7 0.0 1.7 0.00 0.00 0.00 63 1017.2
20260902103139 82 58 0.0 0.9 0.00 0.00 0.00 63 1017.2
20260902102635 82 53 0.0 1.7 0.00 0.00 0.00 63 1017.1
20260902102132 82 53 0.9 0.9 0.00 0.00 0.00 62 1017.1
20260902101627 82 53 0.0 0.0 0.00 0.00 0.00 62 1017.1
20260902101126 83 99 0.9 2.6 0.00 0.00 0.00 61 1017.0
20260902100621 83 270 0.0 1.7 0.00 0.00 0.00 61 1016.9
20260902100116 83 298 0.0 0.9 0.00 0.00 0.00 62 1017.0
20260902095615 83 246 0.9 1.7 0.00 0.00 0.00 61 1017.0
20260902095109 83 312 0.9 5.2 0.00 0.00 0.00 61 1016.9
20260902094604 83 103 0.9 2.6 0.00 0.00 0.00 61 1016.9
20260902094101 83 244 0.9 3.5 0.00 0.00 0.00 61 1017.0
20260902093559 83 279 0.0 1.7 0.00 0.00 0.00 61 1016.9
20260902093054 83 283 0.0 2.6 0.00 0.00 0.00 61 1016.9
20260902092549 83 283 0.0 2.6 0.00 0.00 0.00 61 1016.9
20260902092044 83 246 0.0 0.9 0.00 0.00 0.00 60 1016.9
20260902091534 83 307 1.7 2.6 0.00 0.00 0.00 60 1017.0
20260902091030 83 70 1.7 2.6 0.00 0.00 0.00 60 1017.1
20260902090526 84 18 0.9 1.7 0.00 0.00 0.00 60 1016.8
20260902090024 84 24 1.7 5.2 0.00 0.00 0.00 59 1016.9
20260902085518 84 57 2.6 3.5 0.00 0.00 0.00 59 1016.7
20260902085014 84 165 2.6 3.5 0.00 0.00 0.00 59 1016.8
20260902084510 84 327 0.0 1.7 0.00 0.00 0.00 59 1016.7
20260902084006 84 231 1.7 3.5 0.00 0.00 0.00 58 1016.9
20260902083501 84 242 1.7 2.6 0.00 0.00 0.00 58 1017.1
20260902082955 84 285 1.7 3.5 0.00 0.00 0.00 57 1016.8
20260902082450 84 285 1.7 5.2 0.00 0.00 0.00 57 1016.9
20260902081946 84 343 0.9 2.6 0.00 0.00 0.00 57 1016.8
20260902081443 84 90 0.9 2.6 0.00 0.00 0.00 57 1016.8
20260902080938 84 154 1.7 2.6 0.00 0.00 0.00 57 1016.9
20260902080433 83 40 1.7 2.6 0.00 0.00 0.00 57 1016.8
20260902075933 84 53 0.9 1.7 0.00 0.00 0.00 56 1016.8
20260902075429 84 341 0.9 1.7 0.00 0.00 0.00 56 1016.9
20260902074924 84 10 0.0 1.7 0.00 0.00 0.00 55 1016.7
20260902074420 85 331 0.0 1.7 0.00 0.00 0.00 55 1016.8
20260902073914 84 149 0.0 3.5 0.00 0.00 0.00 55 1016.9
20260902073411 84 54 0.0 2.6 0.00 0.00 0.00 55 1016.8
20260902072906 84 280 0.9 1.7 0.00 0.00 0.00 55 1016.8
20260902072403 84 316 0.9 2.6 0.00 0.00 0.00 55 1016.7
20260902071859 85 256 0.0 2.6 0.00 0.00 0.00 55 1016.7
20260902071358 85 334 0.0 0.9 0.00 0.00 0.00 54 1016.8
20260902070855 85 51 0.0 5.2 0.00 0.00 0.00 54 1016.7
20260902070350 85 166 1.7 2.6 0.00 0.00 0.00 54 1017.0
20260902065848 85 11 0.9 1.7 0.00 0.00 0.00 54 1016.9
20260902065343 85 347 0.0 1.7 0.00 0.00 0.00 54 1016.9
20260902064833 85 155 0.9 0.9 0.00 0.00 0.00 54 1016.9
20260902064330 85 324 0.0 0.9 0.00 0.00 0.00 53 1016.8
20260902063824 85 244 0.9 1.7 0.00 0.00 0.00 53 1016.9
20260902063318 85 237 2.6 2.6 0.00 0.00 0.00 53 1016.8
20260902062813 85 172 0.0 0.9 0.00 0.00 0.00 53 1016.8
20260902062308 86 54 0.0 1.7 0.00 0.00 0.00 53 1016.8
20260902061808 86 329 0.9 1.7 0.00 0.00 0.00 53 1016.9
20260902061303 85 119 0.9 1.7 0.00 0.00 0.00 53 1017.0
20260902060800 85 125 0.0 1.7 0.00 0.00 0.00 53 1016.8
20260902060255 86 134 0.0 0.9 0.00 0.00 0.00 53 1017.0
20260902055750 86 134 0.9 1.7 0.00 0.00 0.00 52 1016.9
20260902055247 86 99 0.0 0.9 0.00 0.00 0.00 52 1016.7
20260902054747 86 99 0.9 0.9 0.00 0.00 0.00 52 1016.7
20260902054243 86 99 0.9 0.9 0.00 0.00 0.00 51 1016.9
20260902053737 87 98 0.0 1.7 0.00 0.00 0.00 51 1016.7
20260902053236 87 98 0.0 0.9 0.00 0.00 0.00 50 1016.7
20260902052731 87 98 0.0 3.5 0.00 0.00 0.00 50 1016.5
20260902052227 87 309 0.9 1.7 0.00 0.00 0.00 49 1016.4
20260902051726 87 172 0.9 0.9 0.00 0.00 0.00 50 1016.5
20260902051220 87 136 0.0 1.7 0.00 0.00 0.00 49 1016.4
20260902050715 87 159 0.0 0.9 0.00 0.00 0.00 49 1016.4
20260902050210 87 283 1.7 2.6 0.00 0.00 0.00 49 1016.5
20260902045705 88 117 0.9 0.9 0.00 0.00 0.00 48 1016.5
20260902045201 88 257 1.7 2.6 0.00 0.00 0.00 48 1016.5
20260902044656 88 18 0.9 2.6 0.00 0.00 0.00 48 1016.5
20260902044152 87 274 1.7 2.6 0.00 0.00 0.00 48 1016.5
20260902043646 88 2 0.0 0.9 0.00 0.00 0.00 48 1016.8
20260902043142 88 137 1.7 3.5 0.00 0.00 0.00 48 1016.9
20260902042636 88 223 1.7 2.6 0.00 0.00 0.00 48 1016.8
20260902042131 88 172 0.0 2.6 0.00 0.00 0.00 48 1016.6
20260902041631 88 291 1.7 2.6 0.00 0.00 0.00 48 1016.7
20260902041126 88 264 0.0 0.9 0.00 0.00 0.00 49 1016.7
20260902040625 88 181 0.9 1.7 0.00 0.00 0.00 48 1016.7
20260902040120 88 155 1.7 1.7 0.00 0.00 0.00 48 1016.7
20260902035618 88 314 0.0 1.7 0.00 0.00 0.00 48 1016.8
20260902035114 88 151 0.9 1.7 0.00 0.00 0.00 48 1016.7
20260902034613 88 156 0.0 0.9 0.00 0.00 0.00 48 1016.6
20260902034107 88 207 0.9 1.7 0.00 0.00 0.00 48 1016.7
20260902033606 89 51 0.9 0.9 0.00 0.00 0.00 47 1016.6
20260902033101 89 249 0.0 1.7 0.00 0.00 0.00 47 1016.5
20260902032600 89 350 0.0 2.6 0.00 0.00 0.00 47 1016.4
20260902032055 89 185 0.9 1.7 0.00 0.00 0.00 46 1016.5
20260902031549 89 21 0.0 0.9 0.00 0.00 0.00 47 1016.2
20260902031046 89 132 0.0 1.7 0.00 0.00 0.00 46 1016.3
20260902030545 89 116 0.0 1.7 0.00 0.00 0.00 46 1015.9
20260902030040 90 108 0.0 0.9 0.00 0.00 0.00 46 1016.3
20260902025540 90 107 0.9 1.7 0.00 0.00 0.00 45 1016.1
20260902025035 90 107 0.0 0.9 0.00 0.00 0.00 45 1015.8
20260902024531 90 279 0.0 2.6 0.00 0.00 0.00 45 1015.8
20260902024030 90 186 0.9 0.9 0.00 0.00 0.00 44 1015.7
20260902023526 91 187 0.0 1.7 0.00 0.00 0.00 44 1015.5
20260902023021 91 331 0.0 0.9 0.00 0.00 0.00 44 1015.6
20260902022515 91 296 0.0 1.7 0.00 0.00 0.00 43 1015.5
20260902022011 91 339 0.0 0.0 0.00 0.00 0.00 43 1015.4
20260902021501 92 177 0.0 0.9 0.00 0.00 0.00 42 1015.2
20260902020956 92 200 0.0 1.7 0.00 0.00 0.00 42 1015.3
20260902020452 92 246 0.9 1.7 0.00 0.00 0.00 42 1015.3
20260902015948 92 24 0.0 0.9 0.00 0.00 0.00 41 1015.3
20260902015443 92 63 0.9 1.7 0.00 0.00 0.00 41 1015.0
20260902014938 92 44 0.0 0.0 0.00 0.00 0.00 41 1015.2
20260902014435 92 101 0.9 1.7 0.00 0.00 0.00 40 1015.2
20260902013934 93 9 0.0 0.9 0.00 0.00 0.00 40 1015.2
20260902013430 93 0 0.0 0.9 0.00 0.00 0.00 39 1015.0
20260902012925 93 19 0.0 1.7 0.00 0.00 0.00 39 1014.9
20260902012420 94 37 0.0 0.9 0.00 0.00 0.00 38 1014.9
20260902011916 94 64 0.9 0.9 0.00 0.00 0.00 38 1014.8
20260902011410 94 354 0.0 1.7 0.00 0.00 0.00 37 1014.8
20260902010910 94 298 0.0 3.5 0.00 0.00 0.00 36 1015.0
20260902010405 95 98 0.0 2.6 0.00 0.00 0.00 36 1014.9
20260902005905 95 287 0.0 3.5 0.00 0.00 0.00 35 1014.8
20260902005404 95 63 0.0 1.7 0.00 0.00 0.00 35 1014.8
20260902004900 96 47 1.7 2.6 0.00 0.00 0.00 35 1014.8
20260902004359 96 335 0.0 0.9 0.00 0.00 0.00 34 1014.6
20260902003849 96 72 1.7 3.5 0.00 0.00 0.00 34 1014.7
20260902003344 96 335 0.0 0.0 0.00 0.00 0.00 35 1014.8
20260902002840 96 284 0.9 2.6 0.00 0.00 0.00 34 1014.9
20260902002339 96 246 0.9 2.6 0.00 0.00 0.00 34 1014.8
20260902001835 97 64 0.0 0.9 0.00 0.00 0.00 34 1015.0
20260902001329 97 62 0.9 1.7 0.00 0.00 0.00 34 1015.1
20260902000824 97 322 0.0 6.1 0.00 0.00 0.00 33 1015.1
20260902000322 98 337 0.9 3.5 0.00 0.00 0.00 33 1015.0
20260901235814 98 292 1.7 5.2 0.00 0.00 0.00 33 1014.8
20260901235308 98 304 2.6 6.1 0.00 0.00 0.00 32 1014.7
20260901234808 98 268 0.9 2.6 0.00 0.00 0.00 32 1015.1
20260901234303 98 326 2.6 3.5 0.00 0.00 0.00 32 1015.2
20260901233758 98 255 1.7 3.5 0.00 0.00 0.00 33 1014.9
20260901233253 98 276 0.9 5.2 0.00 0.00 0.00 32 1015.1
20260901232748 99 58 0.9 1.7 0.00 0.00 0.00 32 1015.3
20260901232243 99 205 1.7 2.6 0.00 0.00 0.00 31 1015.3
20260901231739 99 4 0.0 1.7 0.00 0.00 0.00 31 1015.3
20260901231236 99 290 0.0 3.5 0.00 0.00 0.00 31 1015.4
20260901230732 99 65 1.7 3.5 0.00 0.00 0.00 31 1015.3
20260901230231 99 124 0.0 2.6 0.00 0.00 0.00 31 1015.1
20260901225727 99 153 1.7 3.5 0.00 0.00 0.00 31 1015.3
20260901225221 99 318 1.7 2.6 0.00 0.00 0.00 32 1015.3
20260901224717 100 7 3.5 7.0 0.00 0.00 0.00 32 1015.4
20260901224213 99 267 2.6 3.5 0.00 0.00 0.00 31 1015.1
20260901223709 100 294 1.7 2.6 0.00 0.00 0.00 31 1015.1
20260901223203 100 273 0.0 1.7 0.00 0.00 0.00 30 1015.1
20260901222700 101 68 0.9 1.7 0.00 0.00 0.00 30 1015.2
20260901222155 102 312 0.0 2.6 0.00 0.00 0.00 30 1015.1
20260901221651 102 130 1.7 3.5 0.00 0.00 0.00 30 1015.0
20260901221147 101 270 1.7 6.1 0.00 0.00 0.00 30 1015.1
20260901220646 102 99 0.9 2.6 0.00 0.00 0.00 30 1015.1
20260901220145 101 264 0.9 3.5 0.00 0.00 0.00 29 1015.2
20260901215644 102 294 0.9 5.2 0.00 0.00 0.00 29 1015.1
20260901215139 101 265 1.7 2.6 0.00 0.00 0.00 30 1015.3
20260901214637 99 242 0.9 2.6 0.00 0.00 0.00 31 1015.3
20260901214136 99 42 0.9 0.9 0.00 0.00 0.00 31 1015.4
20260901213630 100 307 0.9 5.2 0.00 0.00 0.00 30 1015.3
20260901213125 103 218 0.9 2.6 0.00 0.00 0.00 29 1015.6
20260901212625 101 238 4.3 6.1 0.00 0.00 0.00 30 1015.3
20260901212121 101 19 0.9 3.5 0.00 0.00 0.00 30 1015.6
20260901211616 103 299 0.9 0.9 0.00 0.00 0.00 28 1015.8
20260901211113 102 136 1.7 7.0 0.00 0.00 0.00 29 1015.6
20260901210608 104 175 0.9 1.7 0.00 0.00 0.00 28 1015.8
20260901210104 104 200 3.5 6.1 0.00 0.00 0.00 27 1015.8
20260901205559 103 113 1.7 2.6 0.00 0.00 0.00 28 1015.8
20260901205053 104 180 2.6 6.1 0.00 0.00 0.00 28 1015.8
20260901204549 103 182 2.6 5.2 0.00 0.00 0.00 29 1015.9
20260901204044 103 206 0.0 1.7 0.00 0.00 0.00 28 1016.2
20260901203538 102 37 1.7 7.0 0.00 0.00 0.00 29 1016.4
20260901203033 101 269 2.6 6.1 0.00 0.00 0.00 28 1016.3
20260901202528 100 153 1.7 1.7 0.00 0.00 0.00 29 1016.3
20260901202024 101 270 3.5 6.1 0.00 0.00 0.00 28 1016.5
20260901201519 99 261 1.7 5.2 0.00 0.00 0.00 29 1016.7
20260901201014 100 301 0.0 1.7 0.00 0.00 0.00 28 1016.7
20260901200508 102 240 1.7 7.8 0.00 0.00 0.00 28 1016.7
20260901200003 102 320 1.7 3.5 0.00 0.00 0.00 28 1016.9
20260901195501 102 320 1.7 3.5 0.00 0.00 0.00 28 1016.9
20260901195000 101 137 1.7 8.7 0.00 0.00 0.00 28 1016.9
20260901194455 102 64 0.9 6.1 0.00 0.00 0.00 28 1016.9
20260901193951 102 223 1.7 5.2 0.00 0.00 0.00 27 1016.8
20260901193450 102 63 0.9 2.6 0.00 0.00 0.00 29 1016.9
20260901192950 101 50 0.9 3.5 0.00 0.00 0.00 29 1016.9
20260901192446 100 151 0.9 3.5 0.00 0.00 0.00 29 1017.2
20260901191942 103 301 1.7 3.5 0.00 0.00 0.00 27 1017.3
20260901191437 102 18 0.9 5.2 0.00 0.00 0.00 29 1017.2
20260901190933 102 178 0.9 5.2 0.00 0.00 0.00 28 1017.2
20260901190433 100 28 1.7 2.6 0.00 0.00 0.00 31 1017.3
20260901185931 98 170 1.7 2.6 0.00 0.00 0.00 30 1017.4
20260901185426 100 84 3.5 3.5 0.00 0.00 0.00 30 1017.4
20260901184926 100 44 1.7 8.7 0.00 0.00 0.00 28 1017.6
20260901184421 101 17 2.6 5.2 0.00 0.00 0.00 29 1017.6
20260901183916 100 221 1.7 3.5 0.00 0.00 0.00 30 1017.9
20260901183416 100 265 1.7 6.1 0.00 0.00 0.00 30 1017.8
20260901182912 99 295 1.7 1.7 0.00 0.00 0.00 30 1017.7
20260901182407 98 256 1.7 8.7 0.00 0.00 0.00 33 1017.9
20260901181902 99 277 1.7 2.6 0.00 0.00 0.00 31 1018.0
20260901181356 99 210 3.5 5.2 0.00 0.00 0.00 30 1017.8
20260901180855 100 89 1.7 6.1 0.00 0.00 0.00 31 1018.1
20260901180354 100 219 4.3 7.0 0.00 0.00 0.00 32 1018.2
20260901175853 99 210 0.9 5.2 0.00 0.00 0.00 33 1018.0
20260901175348 98 268 0.0 6.1 0.00 0.00 0.00 34 1018.2
20260901174843 100 69 0.9 2.6 0.00 0.00 0.00 33 1018.2
20260901174333 101 318 0.9 1.7 0.00 0.00 0.00 32 1018.1
20260901173829 99 355 0.9 6.1 0.00 0.00 0.00 34 1018.3
20260901173324 99 271 0.0 5.2 0.00 0.00 0.00 35 1018.6
20260901172821 98 295 0.9 6.1 0.00 0.00 0.00 34 1018.4
20260901172319 98 76 2.6 5.2 0.00 0.00 0.00 34 1018.6
20260901171817 98 199 1.7 5.2 0.00 0.00 0.00 34 1018.6
20260901171317 98 315 1.7 6.1 0.00 0.00 0.00 34 1018.5
20260901170816 98 306 0.9 5.2 0.00 0.00 0.00 36 1018.7
20260901170316 98 247 0.9 3.5 0.00 0.00 0.00 36 1018.7
20260901165815 98 246 1.7 5.2 0.00 0.00 0.00 35 1018.8
20260901165310 97 316 3.5 7.0 0.00 0.00 0.00 36 1018.8
20260901164807 98 191 2.6 3.5 0.00 0.00 0.00 36 1018.8
20260901164301 97 269 1.7 3.5 0.00 0.00 0.00 38 1018.8
20260901163756 97 126 4.3 6.1 0.00 0.00 0.00 37 1018.9
20260901163256 96 188 1.7 3.5 0.00 0.00 0.00 38 1018.8
20260901162751 96 230 5.2 7.0 0.00 0.00 0.00 38 1018.7
20260901162251 96 278 0.9 6.1 0.00 0.00 0.00 38 1019.0
20260901161749 96 67 0.9 3.5 0.00 0.00 0.00 38 1019.2
20260901161244 95 252 0.9 7.0 0.00 0.00 0.00 38 1018.9
20260901160740 95 268 1.7 8.7 0.00 0.00 0.00 39 1019.0
20260901160236 95 259 1.7 6.1 0.00 0.00 0.00 39 1018.9
20260901155735 95 94 0.9 2.6 0.00 0.00 0.00 40 1019.2
20260901155230 95 243 2.6 3.5 0.00 0.00 0.00 39 1019.0
20260901154725 95 295 2.6 5.2 0.00 0.00 0.00 40 1018.9
20260901154221 94 189 1.7 1.7 0.00 0.00 0.00 40 1018.9
20260901153716 93 231 1.7 3.5 0.00 0.00 0.00 42 1019.0
20260901153215 92 105 0.9 5.2 0.00 0.00 0.00 42 1018.9
20260901152709 93 261 2.6 3.5 0.00 0.00 0.00 42 1019.0
20260901152208 92 308 0.9 5.2 0.00 0.00 0.00 42 1019.0
20260901151704 92 230 0.9 2.6 0.00 0.00 0.00 43 1018.7
20260901151203 92 285 1.7 3.5 0.00 0.00 0.00 43 1019.0
20260901150658 92 223 1.7 3.5 0.00 0.00 0.00 43 1019.2
20260901150156 91 215 0.0 2.6 0.00 0.00 0.00 44 1019.0
20260901145653 90 93 0.9 3.5 0.00 0.00 0.00 45 1019.0
20260901145148 91 56 0.9 1.7 0.00 0.00 0.00 45 1019.0
20260901144644 89 208 1.7 5.2 0.00 0.00 0.00 46 1019.3
20260901144138 90 133 0.9 2.6 0.00 0.00 0.00 46 1019.2
20260901143634 89 200 0.9 5.2 0.00 0.00 0.00 47 1019.2
20260901143130 89 270 0.9 6.1 0.00 0.00 0.00 48 1019.2
20260901142626 89 155 1.7 7.8 0.00 0.00 0.00 48 1019.2
20260901142125 88 256 1.7 2.6 0.00 0.00 0.00 49 1019.4